Location: Tuttlingen
(47.9853°N, 8.8165°E)
Time: 07:37:19
(UTC+01:00)

ISS - Pass Details

Date: 13 November 2017
Orbit: 402 x 407 km, 51.6° (Epoch: 19 November)

Event Time Altitude Azimuth Distance (km) Brightness Sun altitude
Exits shadow 06:35:23 13° 283° (WNW) 1,293 -2.0 -9.0°
Maximum altitude 06:38:05 44° 212° (SSW) 566 -3.2 -8.6°
Drops below altitude 10° 06:41:12 10° 139° (SE) 1,450 0.0 -8.1°
Sets 06:43:19 0° 132° (SE) 2,306 1.4 -7.8°
